Regional Weather Roundup
Issued by NWS

Home | Current Version | Previous Version | Graphics & Text | Print | Product List | Glossary On
Versions: 1 2 3 4 5 6 7 8 9 10 11 12 13 14 15 16 17 18 19 20 21 22 23 24 25 26 27 28 29 30 31 32 33 34 35 36 37 38 39 40 41 42 43 44 45 46 47 48 49 50
608
ASUS43 KDMX 180701
RWRIA

WEATHER ROUNDUP FOR IOWA
NATIONAL WEATHER SERVICE DES MOINES IA
100 AM CST WED JAN 18 2017

NOTE: "FAIR" INDICATES FEW OR NO CLOUDS BELOW 12,000 FEET WITH NO
SIGNIFICANT WEATHER AND/OR OBSTRUCTIONS TO VISIBILITY.

* - THESE STATIONS ARE NOT NWS STATIONS...THUS NOT UNDER NWS
QUALITY CONTROL.  THEY ALSO DO NOT REPORT WEATHER SUCH
AS PRECIPITATION OR FOG.

IAZ001>003-012>014-020>022-031>034-043>046-180800-
   NORTHWEST IOWA

CITY           SKY/WX    TMP DP  RH WIND       PRES   REMARKS
CARROLL *      CLOUDY    30  32 100 SW10      30.07S FOG     WCI  21
CHEROKEE *     CLEAR     24  24 100 CALM      30.03S
DENISON *      FOG       28  28 100 S8        30.05S VSB 1   WCI  20
LE MARS *      CLOUDY    28  27  93 S9        30.02S WCI  20
ORANGE CITY *  CLOUDY    27  27 100 S7        29.99F WCI  19
SHELDON *      CLOUDY    28  28 100 S10       29.97F WCI  19
SIOUX CITY     CLOUDY    27  25  92 SE9       30.03S FOG     WCI  18
SPENCER        CLOUDY    24  23  96 S6        30.00F WCI  17
STORM LAKE *   CLOUDY    27  27 100 SW13      30.02S WCI  16
$$

IAZ055>058-069>071-079>083-090>094-180800-
   SOUTHWEST IOWA

CITY           SKY/WX    TMP DP  RH WIND       PRES   REMARKS
ATLANTIC *     CLOUDY    28  28 100 SW10      30.11S WCI  19
AUDUBON *      FOG       30  28  93 S6        30.10R VSB 1   WCI  24
CLARINDA *     PTCLDY    27  28 100 CALM      30.15F
COUNCIL BLFS * CLEAR     32  32 100 SW12      30.10S WCI  23
CRESTON *      CLOUDY    28  30 100 SW10      30.13S WCI  19
HARLAN  *      CLOUDY    28  28 100 S10       30.13S FOG     WCI  19
LAMONI         CLOUDY    31  30  96 SW12      30.14R WCI  22
RED OAK *      PTCLDY    28  28 100 S6        30.13S WCI  22
SHENANDOAH *   CLEAR     28  28 100 CALM      30.14S
$$

IAZ047>049-059>061-072>074-084-180800-
   CENTRAL IOWA

CITY           SKY/WX    TMP DP  RH WIND       PRES   REMARKS
AMES           CLOUDY    31  30  96 SW12      30.09F FOG     WCI  22
ANKENY *       CLOUDY    32  28  86 SW13      30.12S WCI  22
BOONE *        CLOUDY    30  30 100 SW12      30.07F FOG     WCI  21
CHARITON *     CLOUDY    32  30  93 SW10      30.13S WCI  24
DES MOINES     CLOUDY    32  29  88 SW13      30.11F WCI  22
GRINNELL*      FOG       31  31  99 SW10      30.10S VSB 1/2 WCI  22
KNOXVILLE *    CLOUDY    32  30  93 SW10      30.11S WCI  24
MARSHALLTOWN   FOG       31  31 100 SW16      30.08S VSB 1   WCI  20
NEWTON *       CLOUDY    30  30 100 SW13      30.10S FOG     WCI  20
PELLA *        CLOUDY    32  31  97 SW12      30.13S FOG     WCI  23
PERRY *        CLOUDY    31  31 100 SW12      30.09F FOG     WCI  22
$$

IAZ004>006-015-016-023>025-035-036-180800-
   NORTH CENTRAL IOWA

CITY           SKY/WX    TMP DP  RH WIND       PRES   REMARKS
ALGONA *       CLOUDY    30  30 100 SW14      30.02F FOG     WCI  20
CLARION *      CLOUDY    30  30 100 SW10      30.05F FOG     WCI  21
ESTHERVILLE    CLOUDY    26  26 100 S10       29.99F WCI  16
FORT DODGE *   CLOUDY    28  27  93 MISG      30.07S
MASON CITY     CLOUDY    28  27  96 SW10      30.04F WCI  19
FOREST CITY *  CLOUDY    28  28 100 SW12      30.03F FOG     WCI  18
WEBSTER CITY * CLOUDY    28  28 100 SW14      30.05S WCI  17
IOWA FALLS *   CLOUDY    31  30  97 SW6       30.07S FOG     WCI  25
$$

IAZ007>011-017>019-026>030-037>042-050>054-066-180800-
   NORTHEAST IOWA

CITY           SKY/WX    TMP DP  RH WIND       PRES   REMARKS
CEDAR RAPIDS   CLOUDY    32  32 100 SW5       30.08S FOG     WCI  27
CHARLES CITY * FOG       30  30 100 W10       30.05S VSB 1/4 WCI  21
CLINTON *      CLOUDY    33  32  96 W12       30.09R FOG     WCI  24
DECORAH *      FOG       30  30 100 W8        30.02S VSB 1/2 WCI  23
DUBUQUE        CLOUDY    32  32 100 W10       30.05S FOG     WCI  24
MONTICELLO *   CLOUDY    34  32  93 W6        30.07S WCI  29
OELWEIN *      FOG       32  32 100 W14       30.06R VSB 1/4 WCI  22
WATERLOO       FOG       31  30  96 SW10      30.07S VSB 1   WCI  22
$$

IAZ064-065-067-068-078-180800-
   EAST CENTRAL IOWA

CITY           SKY/WX    TMP DP  RH WIND       PRES   REMARKS
DAVENPORT      CLOUDY    33  32  96 W9        30.10R FOG     WCI  25
IOWA CITY      CLOUDY    35  33  92 SW5       30.12S FOG     WCI  31
MUSCATINE *    CLOUDY    36  34  93 W7        30.13R FOG     WCI  30
QUAD CITIES    CLOUDY    35  32  88 W9        30.10R WCI  28
$$

IAZ062-063-075>077-085>089-095>099-180800-
   SOUTHEAST IOWA

CITY           SKY/WX    TMP DP  RH WIND       PRES   REMARKS
BURLINGTON     CLOUDY    36  35  96 W6        30.13R WCI  31
FAIRFIELD *    CLOUDY    36  30  80 SW8G17    30.13R WCI  29
FORT MADISON * CLOUDY    37  36  93 SW6       30.14S WCI  33
KEOKUK *       CLOUDY    37  34  87 W9        30.14R WCI  31
OSKALOOSA *    CLOUDY    32  32  99 W9        30.13R FOG     WCI  24
OTTUMWA        CLOUDY    34  30  85 SW12      30.12S WCI  25
WASHINGTON *   CLOUDY    34  34 100 W8        30.13S FOG     WCI  27
$$

ABBREVIATIONS USED IN REMARKS
   TC - TEMPERATURES IN CELSIUS
  WCI - WIND CHILL INDEX
   HX - HEAT INDEX
  VSB - VISIBILITY
$$





USA.gov is the U.S. government's official web portal to all federal, state and local government web resources and services.